Glasgow, MT

6:40 AM MDT on March 29, 2017 (GMT -0600)
Wokal-Glasgow International

Weather History for KGGW - September, 2013

Change the Weather History Date:

Saturday, September 14, 2013

  Actual Average Record
Temperature  
Mean Temperature 66 °F 59 °F  
Max Temperature 79 °F 73 °F 96 °F (1955)
Min Temperature 53 °F 45 °F 27 °F (1915)
Degree Days  
Heating Degree Days 0 7  
Month to date heating degree days 2 73  
Since 1 July heating degree days 17 126  
Cooling Degree Days 1 1  
Month to date cooling degree days 81 29  
Year to date cooling degree days 558 524  
Growing Degree Days 14 (Base 50)    
Moisture  
Dew Point 49 °F    
Average Humidity 61    
Maximum Humidity 93    
Minimum Humidity 28    
Precipitation  
Precipitation 0.00 in 0.03 in 0.96 in (1927)
Month to date precipitation 1.53 0.44  
Year to date precipitation 14.12 9.61  
Snow  
Snow 0.00 in 0.00 in 0.00 in (2002)
Month to date snowfall 0.0 0.0  
Since 1 July snowfall 0.0 0.0  
Since 1 September snowfall 0.0 0.0  
Snow Depth 0.00 in    
Sea Level Pressure  
Sea Level Pressure 29.91 in    
Wind  
Wind Speed 14 mph (NNE)    
Max Wind Speed 32 mph    
Max Gust Speed 41 mph    
Visibility 10 miles    
Events      
T = Trace of Precipitation, MM = Missing Value Source: NWS Daily Summary

Daily Weather History Graph

Daily Weather History Graph

Search for Another Location

Airport or City:

Trip Planner

Search our weather history database for the weather conditions in past years. The results will help you decide how hot, cold, wet, or windy it might be!

Date:

Astronomy

Sep. 14, 2013 Rise Set
Actual Time 6:42 AM MDT 7:20 PM MDT
Civil Twilight 6:11 AM MDT 7:51 PM MDT
Nautical Twilight 5:33 AM MDT 8:28 PM MDT
Astronomical Twilight 4:54 AM MDT 9:07 PM MDT
Moon 4:21 PM MDT (9/14) 12:58 AM MDT (9/14)
Length of Visible Light 13h 40m
Length of Day
12h 37m
Waxing Gibbous, 73% of the Moon is Illuminated
Sep 14
Waxing Gibbous
Sep 19
Full
Sep 26
Last Quarter
Oct 4
New
Oct 11
First Quarter

Hourly Weather History & Observations

Time (MDT) Temp. Dew Point Humidity Pressure Visibility Wind Dir Wind Speed Gust Speed Precip Events Conditions
12:53 AM 68.0 °F 57.0 °F 68% 29.70 in 10.0 mi NE 4.6 mph - N/A   Clear
1:53 AM 66.0 °F 55.9 °F 70% 29.70 in 10.0 mi NE 9.2 mph - N/A   Clear
2:53 AM 64.9 °F 55.0 °F 70% 29.71 in 10.0 mi ENE 6.9 mph - N/A   Clear
3:53 AM 62.1 °F 55.9 °F 80% 29.73 in 10.0 mi NW 6.9 mph - N/A   Clear
4:53 AM 61.0 °F 55.9 °F 83% 29.74 in 10.0 mi Calm Calm - N/A   Clear
5:53 AM 61.0 °F 55.0 °F 81% 29.75 in 10.0 mi NNW 4.6 mph - N/A   Clear
6:53 AM 57.9 °F 55.0 °F 90% 29.77 in 10.0 mi NNW 6.9 mph - N/A   Clear
7:53 AM 63.0 °F 55.9 °F 78% 29.79 in 10.0 mi NW 6.9 mph - N/A   Clear
8:53 AM 64.0 °F 55.9 °F 75% 29.81 in 10.0 mi WNW 11.5 mph - N/A   Clear
9:27 AM 68.0 °F 55.4 °F 64% 29.86 in 10.0 mi North 17.3 mph 24.2 mph N/A   Clear
9:53 AM 66.9 °F 55.0 °F 66% 29.84 in 10.0 mi North 12.7 mph - N/A   Clear
10:53 AM 71.1 °F 54.0 °F 55% 29.86 in 10.0 mi NNE 25.3 mph 32.2 mph N/A   Clear
11:53 AM 75.0 °F 54.0 °F 48% 29.86 in 10.0 mi NNE 26.5 mph 32.2 mph N/A   Clear
12:53 PM 73.9 °F 50.0 °F 43% 29.89 in 10.0 mi NE 26.5 mph 38.0 mph N/A   Scattered Clouds
1:53 PM 77.0 °F 46.0 °F 33% 29.90 in 10.0 mi NE 32.2 mph 38.0 mph N/A   Partly Cloudy
2:53 PM 75.0 °F 46.0 °F 36% 29.96 in 10.0 mi NE 16.1 mph 25.3 mph N/A   Mostly Cloudy
3:53 PM 78.1 °F 45.0 °F 31% 29.98 in 10.0 mi NNE 17.3 mph 25.3 mph N/A   Mostly Cloudy
4:53 PM 77.0 °F 41.0 °F 28% 30.00 in 10.0 mi NNE 19.6 mph - N/A   Partly Cloudy
5:53 PM 73.9 °F 39.9 °F 29% 30.03 in 10.0 mi NE 13.8 mph - N/A   Clear
6:53 PM 70.0 °F 39.9 °F 33% 30.05 in 10.0 mi NNE 11.5 mph - N/A   Clear
7:53 PM 61.0 °F 42.1 °F 50% 30.08 in 10.0 mi NNE 6.9 mph - N/A   Clear
8:53 PM 57.0 °F 42.1 °F 57% 30.10 in 10.0 mi NE 11.5 mph - N/A   Clear
9:53 PM 57.0 °F 41.0 °F 55% 30.12 in 10.0 mi NE 12.7 mph - N/A   Clear
10:53 PM 57.0 °F 41.0 °F 55% 30.13 in 10.0 mi NE 12.7 mph - N/A   Clear
11:53 PM 55.0 °F 41.0 °F 59% 30.14 in 10.0 mi NE 12.7 mph - N/A   Clear